User: anonymous   Login
Location: Caltech
(34.1382°N, 118.1253°W)
Time: 20:40:13
(UTC-07:00)
Language:

Gbstr 26 Del rocket - Orbit

View from above orbital plane
View from above orbital plane
View from above satellite
View from above satellite

Ground track
Ground track

The orbit data is extracted from the following two-line orbital elements,

1 25876U 99041E   16122.58983037  .00000247  00000-0  81923-4 0  9996
2 25876  51.7663 140.4180 0532720 268.7023  85.2852 14.03791376856799
Epoch (UTC): 01 May 2016 14:09:21
Eccentricity: 0.0532720
inclination: 51.7663°
perigee height: 494 km
apogee height: 1267 km
right ascension of ascending node: 140.4180°
argument of perigee: 268.7023°
revolutions per day: 14.03791376
mean anomaly at epoch: 85.2852°
orbit number at epoch: 85679

The dashed part of the orbit path shows where the satellite is in the earth's shadow,  

DLR